Hourly Data Report for October 05, 2013

All times are specified in Local Standard Time (LST). Add 1 hour to adjust for Daylight Saving Time where and when it is observed.

CAPE DORSET A
NUNAVUT

64°13'49.000" N
76°31'30.000" W
48.20 m
2400637
71366
YTE

Download Data

Hourly Data (October 2013)
Hourly Data Report for October 5, 2013
Temp Definition
°C
Dew Point Temp Definition
°C
Rel Hum Definition
%
Wind Dir Definition
10's deg

Wind Spd Definition
km/h
Visibility Definition
km
Stn Press Definition
kPa
Hmdx Definition


Wind Chill Definition


Weather Definition


TIME
00:00 Legend Double Dagger -3.5 -6.5 80 36 21 16.1 101.54   -10 LegendNANA
01:00 Legend Double Dagger -3.5 -6.5 80 5 17 16.1 101.54   -9 LegendNANA
02:00 Legend Double Dagger -3.6 -6.7 79 1 11 16.1 101.55   -8 LegendNANA
03:00 Legend Double Dagger -3.4 -6.7 78 1 17 16.1 101.54   -9 LegendNANA
04:00 Legend Double Dagger -3.4 -6.8 78 5 17 16.1 101.54   -9 LegendNANA
05:00 Legend Double Dagger -3.5 -7.0 77 5 17 16.1 101.57   -9 LegendNANA
06:00 Legend Double Dagger -3.5 -7.3 75 3 21 16.1 101.55   -10 LegendNANA
07:00 Legend Double Dagger -3.5 -7.4 75 35 15 16.1 101.56   -9 LegendNANA
08:00 Legend Double Dagger -3.4 -7.1 76 2 15 16.1 101.55   -9 LegendNANA
09:00 Legend Double Dagger -3.5 -7.0 77 36 9 16.1 101.55   -7 LegendNANA
10:00 Legend Double Dagger -3.4 -7.3 75 35 9 16.1 101.53   -7 LegendNANA
11:00 Legend Double Dagger -3.3 -6.8 77 35 11 16.1 101.51   -8 LegendNANA
12:00 Legend Double Dagger -3.3 -7.3 74 1 8 16.1 101.53   -7 LegendNANA
13:00 Legend Double Dagger -3.0 -6.7 76 36 11 16.1 101.53   -7 LegendNANA
14:00 Legend Double Dagger -3.0 -6.3 78 35 9 16.1 101.54   -7 LegendNANA
15:00 Legend Double Dagger -3.0 -6.7 76 36 5 16.1 101.57   -5 LegendNANA
16:00 Legend Double Dagger -3.1 -6.8 76 3 9 16.1 101.55   -7 LegendNANA
17:00 Legend Double Dagger -3.1 -6.5 77 1 17 16.1 101.57   -9 LegendNANA
18:00 Legend Double Dagger -3.4 -6.9 77 36 13 16.1 101.61   -8 LegendNANA
19:00 Legend Double Dagger -3.5 -7.6 73 35 5 16.1 101.64   -6 LegendNANA
20:00 Legend Double Dagger -3.4 -7.2 75 LegendMM 4 16.1 101.64   -5 LegendNANA
21:00 Legend Double Dagger -3.3 -7.1 75 4 5 16.1 101.64   -5 LegendNANA
22:00 Legend Double Dagger -3.2 -7.0 75 6 9 16.1 101.62   -7 LegendNANA
23:00 Legend Double Dagger -3.4 -7.4 74 32 11 16.1 101.63   -8 LegendNANA

Notes on Data Quality.

Legend

  • E = Estimated
  • M = Missing
  • NA = Not Available
  • ‡ = Partner data that is not subject to review by the National Climate Archives
Date modified: